Location: Andrest
(43.3200°N, 0.0641°E)
Time: 20:28:55
(UTC+00:00)

Cosmos 1943 - Pass Details

Date: 01 December 2020
Orbit: 832 x 851 km, 71.0° (Epoch: 18 January)

Event Time Altitude Azimuth Distance (km) Brightness Sun altitude
Rises 17:48:16 0° 190° (S) 3,375 6.7 -14.7°
Reaches altitude 10° 17:50:44 10° 186° (S) 2,448 5.9 -15.2°
Maximum altitude 17:56:12 56° 109° (ESE) 1,002 3.3 -16.1°
Enters shadow 18:00:10 19° 38° (NE) 1,906 4.6 -16.8°
